Precipitable_Water
1.17 1.26 1.30 1.33 1.36 1.42 1.44 1.40 1.38 1.38 1.37 1.35 1.33 1.29 1.29 1.31 1.36 1.33 1.42 1.36 1.44 1.52 1.52 1.46 1.37 1.33 1.41 1.53 1.50 1.51 1.47 1.43 1.41 1.56 1.67 1.77 1.77 1.67 1.48 1.45 1.38 1.32 1.38 1.44 1.45 1.47 1.45 1.42 1.41 1.40 1.41 1.38 1.28 1.17 1.16 1.18 1.23 1.22 1.23 1.34 1.31 1.26 1.22 1.31 1.42 1.58 1.57 1.54 1.58 1.55 1.56 1.65 1.62 1.59 1.59 1.63 1.69 1.79 1.84 1.82 1.83 1.80 1.76 1.75 1.76
1.14 1.13 1.19 1.27 1.30 1.32 1.35 1.34 1.32 1.26 1.27 1.31 1.25 1.30 1.29 1.34 1.25 1.28 1.28 1.43 1.46 1.43 1.45 1.56 1.53 1.53 1.44 1.46 1.39 1.30 1.31 1.39 1.47 1.51 1.57 1.54 1.53 1.55 1.48 1.43 1.38 1.29 1.24 1.23 1.25 1.25 1.23 1.25 1.25 1.25 1.21 1.10 1.05 1.04 1.02 1.05 1.06 1.08 1.13 1.14 1.25 1.22 1.18 1.28 1.38 1.51 1.48 1.43 1.37 1.39 1.45 1.54 1.62 1.60 1.53 1.56 1.65 1.72 1.78 1.80 1.80 1.78 1.74 1.73 1.76
1.03 1.06 1.13 1.18 1.22 1.26 1.27 1.30 1.29 1.33 1.32 1.29 1.32 1.30 1.31 1.27 1.28 1.25 1.26 1.41 1.40 1.57 1.54 1.47 1.53 1.49 1.32 1.29 1.29 1.25 1.35 1.37 1.30 1.32 1.38 1.40 1.43 1.47 1.40 1.33 1.26 1.22 1.21 1.22 1.20 1.21 1.19 1.18 1.17 1.20 1.14 1.08 0.99 0.98 0.97 0.95 0.98 1.05 1.16 1.17 1.16 1.29 1.30 1.35 1.38 1.45 1.36 1.52 1.55 1.46 1.33 1.30 1.46 1.52 1.56 1.58 1.67 1.63 1.72 1.73 1.78 1.77 1.76 1.77 1.77
0.96 1.03 1.05 1.12 1.18 1.23 1.23 1.24 1.27 1.32 1.31 1.28 1.27 1.28 1.32 1.31 1.28 1.24 1.25 1.38 1.39 1.45 1.44 1.50 1.61 1.53 1.43 1.49 1.31 1.22 1.17 1.23 1.20 1.14 1.09 1.09 1.14 1.35 1.35 1.28 1.24 1.18 1.16 1.14 1.14 1.14 1.18 1.19 1.18 1.13 1.13 1.12 1.06 1.02 1.00 0.96 0.99 1.08 1.19 1.24 1.26 1.13 1.18 1.20 1.32 1.33 1.27 1.40 1.35 1.36 1.38 1.38 1.26 1.35 1.40 1.52 1.72 1.69 1.67 1.69 1.74 1.75 1.80 1.82 1.81
0.99 1.03 1.09 1.11 1.14 1.18 1.19 1.21 1.27 1.25 1.25 1.26 1.29 1.31 1.32 1.30 1.30 1.26 1.21 1.28 1.27 1.29 1.31 1.25 1.15 1.03 1.00 0.96 0.92 0.92 0.90 0.89 0.86 0.82 0.90 0.93 0.97 1.08 1.14 1.15 1.17 1.16 1.14 1.08 1.07 1.05 1.06 1.04 1.04 1.07 1.14 1.20 1.20 1.16 1.12 1.07 1.09 1.18 1.23 1.23 1.21 1.12 1.06 1.15 1.25 1.24 1.19 1.37 1.40 1.32 1.32 1.28 1.28 1.39 1.50 1.55 1.63 1.58 1.62 1.66 1.66 1.70 1.75 1.80 1.79
1.03 1.06 1.10 1.11 1.12 1.16 1.19 1.20 1.20 1.22 1.22 1.27 1.32 1.35 1.31 1.27 1.26 1.21 1.24 1.21 1.19 1.17 1.08 0.91 0.88 0.91 0.86 0.74 0.67 0.70 0.68 0.71 0.69 0.69 0.74 0.79 0.82 0.90 1.03 1.09 1.08 1.05 1.04 1.05 1.08 1.09 1.07 1.12 1.09 1.07 1.13 1.22 1.20 1.15 1.17 1.22 1.25 1.26 1.31 1.30 1.25 1.24 1.08 1.01 1.02 1.14 1.18 1.23 1.32 1.39 1.37 1.30 1.37 1.51 1.49 1.29 1.60 1.68 1.75 1.74 1.63 1.63 1.70 1.75 1.74
1.14 1.14 1.14 1.12 1.14 1.15 1.14 1.14 1.15 1.17 1.19 1.28 1.29 1.30 1.25 1.26 1.18 1.13 1.06 1.06 1.06 0.98 0.93 0.87 0.87 0.86 0.80 0.76 0.74 0.71 0.67 0.74 0.79 0.81 0.79 0.82 0.85 0.87 0.88 0.99 1.10 1.03 1.03 1.05 1.07 1.09 1.10 1.14 1.14 1.13 1.15 1.18 1.25 1.28 1.28 1.32 1.39 1.43 1.46 1.38 1.29 1.27 1.24 1.03 1.00 1.05 1.17 1.24 1.32 1.39 1.43 1.52 1.60 1.50 1.37 1.48 1.36 1.63 1.68 1.62 1.57 1.59 1.64 1.68 1.68
1.10 1.13 1.16 1.19 1.18 1.17 1.10 1.07 1.12 1.12 1.20 1.25 1.24 1.26 1.25 1.13 1.10 1.05 1.04 0.99 0.94 0.98 0.93 0.90 0.87 0.83 0.82 0.80 0.80 0.77 0.75 0.77 0.80 0.86 0.85 0.81 0.81 0.85 0.88 0.93 1.09 1.10 1.08 1.10 1.09 1.14 1.11 1.08 1.11 1.13 1.17 1.19 1.36 1.37 1.27 1.35 1.44 1.38 1.31 1.28 1.28 1.25 1.22 1.16 1.13 1.14 1.06 1.04 1.25 1.35 1.44 1.46 1.51 1.58 1.55 1.47 1.39 1.36 1.39 1.57 1.64 1.64 1.67 1.63 1.64
1.12 1.13 1.15 1.17 1.20 1.21 1.18 1.09 1.13 1.18 1.21 1.15 1.17 1.18 1.16 1.11 1.03 1.00 0.95 0.93 0.95 0.95 0.96 0.98 0.89 0.83 0.80 0.78 0.80 0.84 0.81 0.80 0.78 0.88 0.81 0.84 0.85 0.91 0.90 0.94 1.02 1.10 1.14 1.12 1.15 1.16 1.17 1.13 1.13 1.15 1.14 1.15 1.24 1.21 1.27 1.38 1.42 1.38 1.34 1.26 1.16 1.14 1.17 1.19 1.20 1.17 1.16 1.14 1.28 1.31 1.43 1.50 1.47 1.42 1.49 1.51 1.44 1.39 1.37 1.38 1.53 1.63 1.58 1.59 1.73
1.14 1.19 1.20 1.22 1.26 1.28 1.26 1.19 1.15 1.17 1.17 1.17 1.15 1.11 1.09 1.05 0.98 0.95 0.94 0.96 0.96 0.95 0.99 0.91 0.87 0.84 0.80 0.81 0.77 0.80 0.79 0.79 0.78 0.81 0.83 0.84 0.83 0.89 0.94 0.97 0.99 1.02 1.06 1.09 1.11 1.11 1.18 1.17 1.13 1.12 1.16 1.21 1.28 1.24 1.21 1.26 1.31 1.38 1.42 1.36 1.28 1.19 1.20 1.19 1.15 1.13 1.19 1.29 1.37 1.37 1.35 1.51 1.52 1.43 1.38 1.39 1.46 1.52 1.38 1.44 1.52 1.49 1.42 1.51 1.59
1.12 1.15 1.21 1.24 1.32 1.36 1.32 1.22 1.19 1.17 1.12 1.08 1.09 1.08 1.06 1.02 1.00 0.97 0.95 0.95 0.96 0.97 0.92 0.86 0.83 0.79 0.77 0.74 0.73 0.70 0.72 0.72 0.71 0.72 0.79 0.81 0.81 0.85 0.90 0.94 1.00 0.99 1.03 1.02 1.02 1.03 1.07 1.16 1.18 1.17 1.16 1.13 1.21 1.28 1.21 1.21 1.24 1.27 1.25 1.22 1.32 1.32 1.24 1.22 1.13 1.08 1.10 1.15 1.22 1.27 1.28 1.49 1.46 1.40 1.31 1.36 1.37 1.35 1.42 1.46 1.50 1.50 1.48 1.47 1.60
1.10 1.12 1.15 1.25 1.32 1.36 1.33 1.22 1.17 1.08 1.06 1.02 1.09 1.05 1.03 1.03 1.00 0.93 0.93 0.96 1.00 0.95 0.93 0.85 0.81 0.78 0.76 0.73 0.73 0.73 0.74 0.73 0.70 0.69 0.76 0.75 0.79 0.81 0.85 0.89 0.92 0.94 0.99 0.97 0.99 1.00 1.00 1.06 1.09 1.12 1.15 1.19 1.19 1.21 1.17 1.13 1.14 1.20 1.21 1.19 1.19 1.25 1.28 1.29 1.25 1.13 1.14 1.22 1.23 1.23 1.27 1.41 1.51 1.54 1.48 1.46 1.35 1.36 1.42 1.44 1.51 1.55 1.56 1.56 1.63
1.05 1.06 1.13 1.23 1.26 1.23 1.25 1.23 1.07 1.05 0.99 1.03 1.05 1.02 1.02 1.00 0.97 0.94 0.95 0.99 0.93 0.95 0.93 0.88 0.88 0.83 0.76 0.77 0.78 0.77 0.79 0.76 0.77 0.74 0.79 0.77 0.79 0.80 0.82 0.84 0.88 0.87 0.91 0.90 0.95 0.99 1.01 1.02 1.00 1.01 1.04 1.06 1.07 1.09 1.14 1.19 1.21 1.23 1.21 1.23 1.24 1.22 1.19 1.13 1.15 1.30 1.32 1.18 1.09 1.16 1.22 1.27 1.38 1.46 1.49 1.56 1.54 1.39 1.46 1.48 1.54 1.67 1.60 1.55 1.68
1.02 1.04 1.09 1.20 1.27 1.26 1.25 1.17 1.03 1.03 1.01 1.03 1.04 1.02 1.01 0.97 0.95 0.96 0.96 0.93 0.91 0.87 0.81 0.77 0.80 0.77 0.80 0.80 0.83 0.82 0.81 0.79 0.82 0.78 0.80 0.82 0.83 0.82 0.83 0.85 0.87 0.89 0.89 0.91 0.94 0.98 0.99 0.99 1.00 1.01 1.05 1.04 1.05 1.06 1.06 1.08 1.10 1.10 1.14 1.17 1.15 1.18 1.19 1.18 1.21 1.27 1.38 1.33 1.32 1.28 1.18 1.20 1.34 1.48 1.51 1.53 1.54 1.48 1.41 1.42 1.44 1.57 1.66 1.59 1.66
1.08 1.06 1.09 1.19 1.27 1.25 1.19 1.11 1.03 1.04 1.03 1.05 1.06 1.03 0.99 0.96 0.96 0.95 0.93 0.91 0.90 0.84 0.79 0.78 0.77 0.81 0.83 0.86 0.88 0.87 0.80 0.82 0.85 0.87 0.86 0.82 0.84 0.82 0.86 0.90 0.89 0.89 0.90 0.93 0.99 1.00 1.00 1.02 1.03 1.05 1.07 1.08 1.08 1.10 1.11 1.11 1.12 1.10 1.12 1.15 1.15 1.16 1.16 1.21 1.31 1.37 1.26 1.32 1.27 1.26 1.30 1.26 1.22 1.33 1.48 1.40 1.44 1.46 1.50 1.50 1.52 1.44 1.47 1.53 1.50
1.09 1.07 1.11 1.20 1.25 1.24 1.16 1.10 1.05 1.05 1.06 1.10 1.08 1.03 0.99 0.99 0.99 0.99 0.97 0.94 0.91 0.86 0.82 0.76 0.78 0.82 0.84 0.83 0.84 0.84 0.86 0.86 0.89 0.91 0.89 0.87 0.86 0.87 0.89 0.92 0.92 0.93 0.97 0.97 1.01 1.04 1.04 1.04 1.06 1.08 1.09 1.08 1.08 1.10 1.12 1.13 1.14 1.14 1.15 1.18 1.13 1.16 1.14 1.17 1.19 1.22 1.25 1.20 1.20 1.28 1.35 1.38 1.34 1.38 1.42 1.39 1.40 1.47 1.52 1.55 1.57 1.51 1.37 1.28 1.38
1.10 1.08 1.12 1.19 1.24 1.23 1.16 1.09 1.05 1.06 1.09 1.11 1.10 1.04 1.02 1.03 1.02 1.02 1.01 0.99 0.95 0.92 0.87 0.83 0.82 0.78 0.84 0.81 0.79 0.79 0.82 0.83 0.81 0.81 0.83 0.87 0.90 0.93 0.94 0.96 0.97 0.98 0.97 0.99 1.00 1.03 1.05 1.05 1.05 1.06 1.07 1.07 1.07 1.08 1.11 1.12 1.13 1.15 1.15 1.18 1.19 1.21 1.15 1.08 1.08 1.08 1.08 1.18 1.24 1.18 1.21 1.22 1.31 1.46 1.47 1.43 1.42 1.43 1.46 1.49 1.55 1.50 1.49 1.33 1.25
1.14 1.13 1.13 1.17 1.19 1.18 1.14 1.08 1.05 1.07 1.12 1.14 1.13 1.11 1.09 1.10 1.05 1.04 1.02 0.96 0.99 0.94 0.89 0.86 0.84 0.81 0.80 0.79 0.80 0.78 0.79 0.82 0.83 0.81 0.83 0.87 0.93 0.95 0.97 0.97 0.97 1.00 0.99 0.99 0.99 1.00 1.01 1.04 1.04 1.05 1.07 1.06 1.05 1.05 1.08 1.10 1.12 1.13 1.14 1.17 1.23 1.27 1.29 1.25 1.21 1.18 1.18 1.22 1.21 1.16 1.15 1.13 1.24 1.38 1.46 1.49 1.48 1.47 1.39 1.43 1.50 1.56 1.62 1.49 1.36
1.12 1.07 1.08 1.13 1.13 1.12 1.10 1.03 1.04 1.10 1.16 1.19 1.18 1.15 1.13 1.12 1.08 1.08 1.05 1.01 1.02 0.96 0.91 0.87 0.81 0.79 0.76 0.76 0.75 0.79 0.83 0.82 0.83 0.83 0.86 0.88 0.90 0.94 0.96 0.98 1.00 0.99 0.96 0.98 0.98 0.98 0.98 1.00 1.02 1.03 1.05 1.03 1.03 1.04 1.08 1.12 1.14 1.09 1.14 1.15 1.18 1.20 1.18 1.16 1.18 1.18 1.20 1.25 1.23 1.17 1.18 1.17 1.19 1.25 1.45 1.45 1.41 1.42 1.46 1.46 1.46 1.54 1.57 1.64 1.54
1.07 1.07 1.09 1.09 1.08 1.08 1.07 1.03 1.02 1.10 1.17 1.22 1.20 1.18 1.14 1.14 1.10 1.08 1.07 1.03 0.98 0.91 0.88 0.83 0.86 0.80 0.79 0.78 0.79 0.80 0.82 0.82 0.83 0.83 0.85 0.87 0.91 0.94 0.96 0.96 0.96 0.97 0.99 0.98 0.99 0.97 0.97 0.97 0.99 1.01 1.03 1.03 1.04 1.04 1.09 1.12 1.13 1.14 1.18 1.14 1.15 1.16 1.18 1.21 1.19 1.20 1.20 1.20 1.21 1.18 1.14 1.21 1.32 1.30 1.24 1.33 1.46 1.48 1.43 1.42 1.41 1.44 1.55 1.63 1.63
1.06 1.06 1.06 1.04 1.03 1.05 1.09 1.08 1.10 1.19 1.24 1.22 1.20 1.16 1.13 1.16 1.12 1.08 1.02 0.97 0.94 0.91 0.88 0.87 0.82 0.80 0.76 0.76 0.79 0.82 0.84 0.86 0.85 0.87 0.87 0.91 0.93 0.94 0.95 0.96 0.97 0.98 0.98 0.98 0.96 0.96 0.99 1.01 1.03 1.05 1.02 1.00 1.09 1.04 1.05 1.10 1.15 1.18 1.16 1.14 1.18 1.24 1.26 1.23 1.22 1.24 1.26 1.26 1.22 1.18 1.17 1.17 1.18 1.27 1.34 1.31 1.30 1.33 1.40 1.44 1.41 1.43 1.49 1.62 1.56
1.07 1.07 1.04 1.03 1.05 1.06 1.10 1.13 1.15 1.21 1.20 1.17 1.17 1.17 1.11 1.10 1.13 1.11 1.05 1.02 0.98 0.98 0.92 0.86 0.81 0.77 0.74 0.77 0.79 0.81 0.83 0.85 0.84 0.87 0.89 0.93 0.93 0.92 0.93 0.97 0.97 0.99 1.01 0.97 0.97 0.99 1.01 1.03 1.04 1.07 1.08 1.07 1.07 1.07 1.07 1.07 1.07 1.10 1.13 1.21 1.25 1.20 1.18 1.22 1.24 1.21 1.25 1.25 1.24 1.22 1.21 1.21 1.23 1.18 1.17 1.28 1.36 1.29 1.33 1.36 1.31 1.30 1.33 1.52 1.63
1.02 1.05 1.09 1.08 1.08 1.09 1.12 1.14 1.16 1.20 1.20 1.19 1.18 1.14 1.12 1.11 1.09 1.09 1.01 0.94 0.90 0.94 0.97 0.91 0.82 0.77 0.79 0.80 0.81 0.82 0.84 0.85 0.84 0.87 0.89 0.88 0.90 0.91 0.93 0.94 0.97 0.98 1.01 1.00 0.98 0.97 0.98 1.02 1.04 1.06 1.10 1.12 1.11 1.06 1.08 1.06 1.06 1.10 1.14 1.21 1.23 1.22 1.19 1.18 1.19 1.20 1.21 1.23 1.21 1.20 1.22 1.26 1.27 1.23 1.19 1.17 1.26 1.35 1.33 1.29 1.25 1.31 1.35 1.49 1.70
1.00 1.08 1.13 1.14 1.13 1.16 1.19 1.18 1.20 1.18 1.20 1.20 1.18 1.13 1.13 1.12 1.11 1.09 1.03 0.96 0.92 0.93 0.94 0.94 0.84 0.80 0.82 0.82 0.82 0.85 0.83 0.82 0.83 0.88 0.88 0.90 0.92 0.94 0.95 0.93 0.96 0.98 1.00 1.03 1.04 1.01 1.01 1.03 1.05 1.09 1.12 1.13 1.13 1.09 1.07 1.06 1.07 1.09 1.14 1.18 1.19 1.20 1.18 1.20 1.19 1.20 1.24 1.26 1.25 1.22 1.21 1.26 1.30 1.24 1.20 1.24 1.30 1.34 1.40 1.34 1.29 1.29 1.29 1.49 1.65
1.01 1.04 1.09 1.13 1.13 1.13 1.14 1.14 1.14 1.17 1.22 1.24 1.22 1.15 1.12 1.11 1.09 1.06 1.03 1.03 1.02 1.00 0.95 0.88 0.82 0.81 0.85 0.86 0.86 0.87 0.84 0.84 0.85 0.88 0.87 0.90 0.91 0.92 0.94 0.92 0.93 0.99 1.01 1.00 0.98 1.00 1.03 1.03 1.04 1.07 1.10 1.11 1.10 1.08 1.05 1.05 1.07 1.11 1.10 1.13 1.19 1.20 1.20 1.18 1.20 1.22 1.25 1.26 1.27 1.27 1.26 1.26 1.29 1.29 1.25 1.22 1.29 1.26 1.37 1.36 1.32 1.32 1.25 1.36 1.58
0.97 1.01 1.03 1.05 1.09 1.12 1.11 1.13 1.16 1.19 1.23 1.26 1.22 1.16 1.13 1.11 1.09 1.06 1.01 0.98 1.00 1.02 0.99 0.90 0.82 0.81 0.85 0.87 0.89 0.87 0.84 0.84 0.87 0.88 0.89 0.91 0.93 0.96 0.95 0.92 0.89 0.86 0.88 0.90 0.91 0.95 1.02 1.05 1.05 1.06 1.08 1.09 1.10 1.10 1.11 1.10 1.09 1.08 1.09 1.11 1.11 1.09 1.10 1.15 1.20 1.21 1.23 1.27 1.28 1.31 1.31 1.29 1.30 1.30 1.29 1.28 1.28 1.26 1.30 1.30 1.28 1.29 1.25 1.33 1.49
0.98 1.01 1.05 1.10 1.13 1.12 1.14 1.17 1.18 1.21 1.26 1.27 1.18 1.13 1.10 1.11 1.10 1.06 1.03 1.02 1.03 1.02 0.97 0.85 0.78 0.78 0.83 0.85 0.88 0.86 0.86 0.87 0.88 0.90 0.91 0.92 0.94 0.97 0.98 0.98 0.98 0.92 0.89 0.92 0.92 0.90 0.94 1.01 1.08 1.08 1.05 1.06 1.10 1.09 1.09 1.11 1.11 1.08 1.07 1.06 1.06 1.04 1.06 1.11 1.13 1.20 1.23 1.27 1.31 1.35 1.36 1.35 1.35 1.37 1.35 1.33 1.29 1.25 1.25 1.25 1.34 1.37 1.29 1.28 1.46
1.05 1.06 1.07 1.08 1.13 1.18 1.21 1.21 1.21 1.23 1.26 1.24 1.18 1.12 1.09 1.08 1.05 1.05 1.05 1.03 1.02 1.02 0.97 0.85 0.78 0.78 0.81 0.87 0.89 0.87 0.87 0.88 0.89 0.90 0.91 0.93 0.97 1.04 1.08 1.06 1.01 0.91 0.86 0.90 0.92 0.88 0.89 0.90 0.94 1.01 1.05 1.07 1.10 1.10 1.13 1.14 1.11 1.09 1.07 1.05 1.03 0.99 1.01 1.04 1.13 1.21 1.21 1.24 1.30 1.37 1.41 1.41 1.43 1.43 1.40 1.42 1.39 1.28 1.31 1.28 1.39 1.45 1.38 1.25 1.31
0.95 1.00 1.06 1.10 1.13 1.20 1.25 1.26 1.26 1.25 1.21 1.17 1.11 1.09 1.09 1.07 1.05 1.05 1.04 1.04 1.04 1.01 0.92 0.83 0.81 0.80 0.86 0.90 0.89 0.86 0.87 0.89 0.91 0.92 0.94 0.96 1.04 1.09 1.06 1.00 0.94 0.88 0.85 0.87 0.96 0.94 0.89 0.88 0.93 1.02 1.10 1.11 1.09 1.11 1.14 1.12 1.07 1.06 1.06 1.03 0.99 0.97 1.00 1.05 1.15 1.19 1.17 1.22 1.28 1.37 1.44 1.44 1.45 1.44 1.43 1.44 1.45 1.47 1.41 1.36 1.41 1.47 1.48 1.35 1.33
0.88 0.95 1.04 1.11 1.17 1.23 1.28 1.29 1.26 1.21 1.19 1.13 1.06 1.03 1.01 0.99 0.99 1.03 1.03 1.03 1.04 0.99 0.88 0.82 0.80 0.84 0.89 0.91 0.89 0.89 0.89 0.92 0.94 0.96 0.99 1.00 1.06 1.07 1.00 0.93 0.91 0.90 0.89 0.91 0.94 0.97 0.95 0.95 0.97 1.02 1.09 1.11 1.11 1.15 1.14 1.08 1.05 1.04 1.04 1.03 0.97 0.96 1.02 1.09 1.14 1.12 1.14 1.22 1.29 1.36 1.43 1.44 1.44 1.45 1.42 1.44 1.46 1.46 1.45 1.43 1.44 1.47 1.52 1.45 1.36
0.89 0.95 1.00 1.09 1.18 1.26 1.30 1.27 1.23 1.20 1.16 1.09 1.02 0.97 0.97 0.98 1.03 1.06 1.06 1.05 1.01 0.96 0.88 0.81 0.81 0.85 0.89 0.90 0.90 0.91 0.91 0.90 0.94 0.95 0.98 1.06 1.09 1.01 0.93 0.92 0.93 0.93 0.95 0.99 0.98 0.94 0.96 0.97 0.95 1.00 1.03 1.06 1.11 1.15 1.10 1.05 1.04 1.06 1.06 1.00 0.92 0.94 1.05 1.12 1.12 1.12 1.15 1.21 1.28 1.36 1.39 1.40 1.40 1.39 1.41 1.43 1.41 1.40 1.42 1.44 1.46 1.51 1.61 1.54 1.40
0.83 0.92 1.00 1.06 1.13 1.22 1.24 1.22 1.21 1.19 1.12 1.05 0.98 0.97 0.98 0.99 1.03 1.03 1.04 1.07 1.02 0.96 0.86 0.81 0.83 0.88 0.89 0.90 0.91 0.93 0.93 0.93 0.95 0.95 1.00 1.05 1.05 0.97 0.92 0.92 0.89 0.86 0.89 0.94 0.93 0.96 0.97 0.98 1.01 1.00 0.99 1.04 1.06 1.09 1.05 1.03 1.02 1.04 1.03 0.95 0.90 0.92 1.03 1.09 1.12 1.11 1.16 1.21 1.26 1.31 1.33 1.36 1.36 1.36 1.38 1.40 1.40 1.41 1.41 1.43 1.45 1.48 1.52 1.55 1.55
0.80 0.88 0.99 1.06 1.11 1.19 1.23 1.23 1.22 1.17 1.07 1.00 0.99 0.98 1.00 1.02 1.04 1.02 0.99 0.99 1.00 0.93 0.84 0.81 0.85 0.87 0.89 0.91 0.93 0.92 0.93 0.95 0.95 0.99 1.03 1.00 1.02 0.95 0.93 0.90 0.87 0.87 0.89 0.94 0.96 0.96 0.96 0.97 0.98 0.97 0.94 1.00 1.02 1.06 1.01 0.98 0.98 0.99 0.96 0.89 0.85 0.91 0.99 1.06 1.11 1.13 1.15 1.21 1.25 1.28 1.31 1.32 1.31 1.32 1.34 1.37 1.38 1.39 1.41 1.42 1.45 1.47 1.47 1.47 1.45
0.82 0.88 0.97 1.09 1.18 1.23 1.26 1.24 1.20 1.14 1.03 0.99 0.99 1.01 1.05 1.05 1.01 0.99 0.96 0.97 0.91 0.85 0.82 0.83 0.86 0.89 0.90 0.90 0.90 0.91 0.91 0.94 0.98 1.03 1.02 1.00 1.01 0.94 0.92 0.89 0.89 0.89 0.87 0.88 0.92 0.91 0.90 0.90 0.90 0.90 0.94 0.98 1.05 1.11 1.02 0.98 0.93 0.92 0.89 0.83 0.81 0.86 0.95 1.04 1.11 1.15 1.14 1.20 1.23 1.26 1.24 1.25 1.27 1.27 1.30 1.31 1.33 1.37 1.39 1.40 1.42 1.45 1.46 1.47 1.45
0.85 0.91 0.98 1.10 1.20 1.24 1.24 1.23 1.14 1.02 0.99 1.00 1.03 1.08 1.07 1.01 0.96 0.93 0.95 0.94 0.87 0.81 0.82 0.83 0.83 0.87 0.91 0.93 0.92 0.93 0.93 0.97 1.01 1.02 1.02 1.01 0.97 0.91 0.89 0.89 0.88 0.86 0.87 0.89 0.90 0.89 0.90 0.91 0.93 0.93 0.91 0.90 0.94 0.98 0.95 0.92 0.89 0.89 0.86 0.83 0.83 0.89 0.95 1.01 1.08 1.12 1.15 1.16 1.18 1.23 1.24 1.22 1.23 1.24 1.27 1.30 1.33 1.35 1.37 1.39 1.40 1.40 1.43 1.46 1.48
0.86 0.93 1.02 1.12 1.21 1.22 1.22 1.15 1.08 1.01 0.99 1.01 1.05 1.05 0.98 0.93 0.93 0.90 0.91 0.86 0.82 0.79 0.79 0.81 0.80 0.85 0.91 0.95 0.95 0.95 0.99 1.02 1.01 1.00 1.00 1.00 0.92 0.88 0.85 0.87 0.89 0.89 0.91 0.94 0.96 0.98 1.00 1.00 0.99 0.97 0.93 0.91 0.92 0.93 0.94 0.94 0.91 0.90 0.89 0.86 0.86 0.86 0.91 0.99 1.06 1.10 1.16 1.15 1.16 1.20 1.21 1.17 1.18 1.24 1.26 1.29 1.33 1.36 1.35 1.35 1.36 1.39 1.40 1.43 1.46
0.91 1.00 1.10 1.22 1.27 1.26 1.21 1.12 1.04 0.99 1.05 1.08 1.05 0.98 0.89 0.87 0.88 0.87 0.83 0.81 0.78 0.75 0.76 0.77 0.79 0.86 0.91 0.94 0.97 0.98 0.97 0.97 0.99 0.98 0.97 0.95 0.88 0.84 0.84 0.89 0.89 0.90 0.88 0.88 0.89 0.89 0.95 1.04 1.09 1.13 1.04 1.02 1.00 0.99 0.96 0.95 0.92 0.90 0.87 0.86 0.83 0.84 0.91 1.00 1.04 1.08 1.12 1.17 1.16 1.16 1.15 1.12 1.18 1.25 1.26 1.27 1.30 1.34 1.32 1.32 1.34 1.36 1.39 1.40 1.40
0.96 1.06 1.18 1.21 1.22 1.20 1.15 0.99 0.96 1.04 1.05 0.96 0.92 0.89 0.88 0.84 0.81 0.81 0.80 0.80 0.76 0.75 0.77 0.77 0.82 0.88 0.92 0.97 0.99 0.98 0.94 0.94 0.98 0.98 0.97 0.90 0.88 0.89 0.91 0.99 0.95 0.92 0.96 0.97 0.94 0.90 0.95 1.00 0.95 0.94 1.04 1.11 1.03 1.04 1.03 0.99 0.96 0.92 0.90 0.87 0.86 0.88 0.92 0.99 1.03 1.06 1.09 1.12 1.16 1.17 1.14 1.13 1.19 1.25 1.28 1.24 1.27 1.32 1.29 1.30 1.34 1.36 1.34 1.35 1.40
0.97 1.02 1.04 1.09 1.13 1.12 1.03 1.00 1.04 0.98 0.94 0.91 0.88 0.86 0.85 0.80 0.75 0.75 0.76 0.76 0.75 0.77 0.79 0.79 0.84 0.89 0.95 1.00 1.02 1.00 0.97 0.97 0.96 0.96 0.94 0.91 0.93 0.91 0.87 0.93 0.88 0.89 1.02 1.09 1.02 0.96 1.05 1.11 1.07 1.01 0.98 0.98 1.05 1.13 1.08 1.03 0.99 0.97 0.96 0.96 0.96 0.92 0.91 0.95 0.97 0.97 1.02 1.08 1.13 1.17 1.15 1.17 1.22 1.25 1.29 1.23 1.25 1.30 1.29 1.28 1.32 1.35 1.33 1.32 1.40
0.98 1.06 1.09 1.07 1.12 1.08 0.98 0.98 0.97 0.93 0.89 0.88 0.88 0.83 0.80 0.76 0.77 0.78 0.73 0.73 0.78 0.84 0.85 0.86 0.89 0.91 0.97 1.03 1.03 0.99 0.99 0.98 0.96 0.97 1.00 0.99 0.93 0.86 0.86 0.92 0.90 0.89 0.90 0.93 0.96 0.96 0.95 0.99 1.05 1.09 1.12 1.05 1.06 1.09 1.08 1.05 0.99 1.00 1.01 1.03 1.02 0.96 0.92 0.94 0.97 0.96 0.95 0.99 1.05 1.10 1.12 1.18 1.22 1.25 1.29 1.25 1.27 1.31 1.30 1.29 1.31 1.32 1.32 1.32 1.45
0.92 0.98 1.05 1.06 1.07 1.00 0.97 0.96 0.89 0.86 0.88 0.91 0.90 0.85 0.83 0.83 0.84 0.84 0.80 0.82 0.89 0.94 0.91 0.90 0.95 1.03 1.02 0.99 0.99 1.00 0.99 1.02 1.03 1.05 1.02 0.92 0.88 0.86 0.90 0.96 0.93 0.91 0.94 0.94 0.94 0.96 0.96 0.97 0.98 1.02 1.06 1.09 1.15 0.99 0.96 1.01 1.01 1.02 1.05 1.04 1.05 1.01 0.98 0.97 0.98 0.97 1.00 0.95 0.95 1.02 1.08 1.14 1.19 1.23 1.31 1.28 1.30 1.31 1.32 1.31 1.30 1.33 1.38 1.44 1.52
0.99 1.00 1.04 1.04 0.99 0.96 0.90 0.87 0.88 0.86 0.90 0.95 0.94 0.89 0.87 0.89 0.89 0.90 0.89 0.91 0.96 0.94 0.94 1.01 1.09 1.04 1.00 0.97 0.94 0.97 1.00 1.02 0.94 0.97 0.94 0.90 0.91 0.92 0.89 0.91 0.98 0.99 0.94 0.92 0.94 0.95 0.99 1.00 1.03 1.00 1.04 1.03 1.05 1.12 1.02 1.04 1.02 1.04 1.06 1.07 1.04 1.03 1.01 0.98 0.95 0.95 0.94 0.94 0.94 0.98 1.03 1.09 1.15 1.19 1.31 1.29 1.28 1.28 1.30 1.31 1.30 1.36 1.44 1.50 1.56
0.92 0.94 0.99 0.98 0.95 0.92 0.89 0.88 0.91 0.93 0.99 0.97 0.93 0.88 0.88 0.90 0.90 0.95 0.94 0.95 0.99 1.06 1.10 1.08 1.04 1.03 1.01 0.97 0.94 0.94 0.98 1.06 1.12 1.01 0.90 0.86 0.89 0.89 0.90 0.91 0.93 0.96 0.96 0.94 0.93 0.95 0.98 0.99 1.00 0.98 0.99 1.04 1.06 1.19 1.19 1.09 1.05 1.03 1.03 1.02 1.03 1.03 1.02 1.00 0.94 0.87 0.88 0.92 0.97 0.98 1.01 1.08 1.14 1.14 1.28 1.32 1.27 1.27 1.28 1.28 1.32 1.37 1.45 1.52 1.59
0.96 0.98 1.00 0.97 0.97 0.95 0.94 0.92 0.94 1.06 1.04 1.02 0.96 0.92 0.91 0.90 0.90 1.01 1.03 1.04 1.10 1.14 1.07 1.02 1.03 1.01 0.97 0.93 0.94 0.97 1.01 1.04 1.01 0.97 0.90 0.85 0.89 0.94 0.95 0.96 0.95 0.93 0.95 0.95 0.95 0.96 0.98 0.98 0.97 0.97 0.99 1.01 1.15 1.25 1.04 1.02 1.12 1.11 1.03 0.99 0.99 1.00 1.00 0.99 0.97 0.92 0.92 0.96 0.97 0.97 1.00 1.04 1.09 1.11 1.25 1.32 1.30 1.25 1.25 1.27 1.29 1.35 1.42 1.51 1.55
0.95 0.94 1.01 0.99 0.96 0.97 0.97 0.99 1.01 1.02 1.01 0.95 0.93 0.88 0.89 0.88 0.95 1.06 1.09 1.08 1.10 1.04 0.99 1.03 1.02 0.99 0.97 0.97 0.99 0.99 1.01 1.02 1.00 0.93 0.86 0.84 0.87 0.93 0.95 0.98 0.93 0.92 0.95 0.95 0.96 0.98 0.99 1.01 0.98 0.98 0.95 0.99 1.05 1.13 1.08 0.96 1.00 1.08 1.08 1.04 1.02 1.01 0.99 0.99 0.95 0.93 0.96 0.99 0.99 0.96 0.97 1.02 1.06 1.09 1.20 1.29 1.31 1.26 1.22 1.26 1.31 1.35 1.39 1.46 1.50
1.00 0.99 0.99 1.01 1.01 0.98 0.98 0.99 1.01 1.01 0.99 0.99 0.99 0.96 0.91 0.92 1.01 1.09 1.09 1.08 1.04 1.00 1.00 0.99 0.97 0.97 1.00 1.04 1.03 1.02 1.04 1.02 0.96 0.92 0.89 0.89 0.92 0.96 0.96 0.98 0.97 0.95 0.96 0.97 1.00 1.01 1.00 1.00 0.96 0.96 0.96 0.96 1.07 1.13 1.13 1.11 1.03 1.01 1.02 1.05 1.04 1.01 0.99 0.98 0.96 0.95 0.89 0.88 0.90 0.95 0.98 1.02 1.05 1.09 1.16 1.25 1.29 1.28 1.25 1.24 1.30 1.36 1.39 1.42 1.45
0.94 0.97 0.97 0.95 0.95 0.93 0.93 0.95 0.96 1.01 0.99 0.99 0.99 0.99 0.98 1.05 1.13 1.14 1.05 1.04 1.04 1.02 1.00 0.98 0.97 0.98 1.05 1.05 0.98 0.93 0.94 0.97 0.95 0.94 0.93 0.94 0.97 0.98 0.99 0.99 0.97 0.95 0.95 0.98 1.01 1.04 1.03 1.01 0.97 0.97 1.01 1.04 1.02 1.04 1.01 1.02 1.00 0.97 0.97 1.00 1.02 1.01 0.99 0.98 0.96 0.96 0.93 0.90 0.94 1.05 1.03 1.01 1.04 1.09 1.14 1.24 1.27 1.30 1.27 1.25 1.29 1.33 1.35 1.37 1.39
0.99 0.96 0.94 0.94 0.92 0.91 0.92 0.93 0.97 1.05 1.03 1.00 0.97 0.97 0.99 1.01 1.09 1.07 1.09 1.05 1.00 0.95 0.95 0.93 0.98 1.06 1.09 1.07 1.01 0.97 0.94 0.92 0.93 0.91 0.90 0.92 1.00 0.99 0.97 0.95 0.97 0.99 0.98 0.99 1.03 1.04 1.03 1.00 0.97 0.97 0.98 1.00 0.98 1.01 1.00 0.94 0.93 0.92 0.92 0.95 0.98 0.99 0.97 0.96 0.93 0.92 0.89 0.89 0.97 1.11 1.10 1.05 1.05 1.07 1.10 1.19 1.23 1.27 1.28 1.26 1.26 1.29 1.32 1.34 1.34
0.94 0.94 0.96 0.98 0.97 0.95 0.94 0.90 0.92 0.94 0.95 0.92 0.92 0.92 0.98 1.03 1.01 1.03 1.08 0.99 0.96 0.93 0.92 0.99 1.05 1.05 1.05 1.00 0.98 1.00 0.98 0.93 0.92 0.93 0.92 0.92 0.94 0.95 0.94 0.97 1.11 1.10 1.04 0.99 1.01 1.05 1.05 1.03 1.01 1.01 0.97 0.94 0.94 0.91 0.94 0.97 0.95 0.94 0.91 0.90 0.92 0.95 0.97 0.97 0.97 0.94 0.92 0.91 0.99 1.03 1.01 0.97 0.95 0.95 0.99 1.06 1.17 1.23 1.25 1.25 1.26 1.28 1.29 1.31 1.32
0.96 0.96 0.94 0.91 0.89 0.89 0.87 0.85 0.85 0.84 0.84 0.86 0.87 0.88 0.90 0.96 1.03 1.10 1.07 1.02 0.98 0.96 0.96 1.00 1.05 1.02 1.01 1.00 1.00 0.99 0.96 0.89 0.84 0.83 0.87 0.96 1.00 1.01 1.01 1.03 1.09 1.11 1.08 1.08 1.09 1.06 1.05 1.06 1.05 1.06 1.03 0.93 0.88 0.91 0.95 0.95 0.94 0.93 0.94 0.94 0.95 0.96 0.98 1.00 1.01 0.99 0.98 0.92 0.93 0.91 0.94 0.97 0.95 0.93 0.93 0.97 1.07 1.17 1.19 1.19 1.21 1.26 1.30 1.29 1.30
0.87 0.85 0.84 0.85 0.85 0.83 0.83 0.79 0.80 0.79 0.80 0.80 0.82 0.85 0.89 0.95 1.02 1.06 1.06 1.03 0.98 0.97 0.91 0.92 0.99 0.98 0.96 0.96 0.91 0.87 0.89 0.88 0.87 0.90 0.90 0.91 0.99 1.05 1.09 1.11 1.12 1.10 1.10 1.11 1.12 1.12 1.12 1.11 1.09 1.05 1.03 0.99 0.95 0.93 0.91 0.91 0.93 0.94 0.94 0.94 0.94 0.96 0.99 1.03 1.04 1.01 1.03 0.96 0.88 0.85 0.90 0.98 1.01 0.98 0.94 0.93 0.98 1.05 1.12 1.14 1.17 1.21 1.25 1.26 1.27
Wind_Speed
4 4 4 3 3 3 3 2 2 1 1 1 1 1 2 3 3 4 5 6 7 8 9 10 11 13 14 14 14 15 16 17 17 18 18 19 19 19 19 19 20 21 21 21 22 23 24 24 24 25 25 26 28 29 29 29 29 29 29 29 30 31 31 30 30 30 30 29 29 28 29 29 29 29 29 29 28 26 25 25 25 25 24 24 24
4 4 3 3 3 3 3 3 2 2 1 1 0 1 1 2 2 4 5 6 7 8 9 11 12 13 13 13 14 15 16 17 17 18 18 19 20 20 20 21 21 22 22 22 23 24 24 24 25 25 25 26 27 28 28 28 28 28 28 28 29 30 30 30 29 29 29 29 29 29 28 29 30 30 30 30 29 29 28 27 27 26 26 25 25
4 3 3 3 3 4 4 3 2 2 1 1 1 1 2 2 3 3 4 5 7 8 9 11 11 12 13 14 14 15 16 16 17 18 19 20 21 21 21 22 23 23 23 23 24 24 24 25 25 25 25 25 26 26 26 26 27 28 28 27 27 28 28 29 29 29 29 29 29 29 28 28 29 30 31 31 31 30 30 29 28 28 28 27 26
4 4 4 4 4 4 4 3 3 2 1 0 1 2 2 3 3 4 5 6 7 8 9 10 11 12 13 14 14 15 15 16 17 18 18 19 20 21 22 23 23 24 24 24 24 25 25 25 25 26 26 26 25 26 26 26 27 27 27 27 27 27 27 28 28 29 29 29 28 28 28 28 28 28 30 31 31 31 31 31 29 29 29 29 28
5 5 5 5 5 4 4 3 2 2 1 1 1 2 3 4 4 5 6 7 8 9 10 11 12 12 13 14 14 15 16 16 17 18 18 19 20 21 22 23 23 24 24 24 24 25 25 25 25 26 26 26 26 26 26 26 26 26 27 27 27 27 27 27 28 28 29 29 29 28 27 28 28 28 28 29 29 30 31 31 30 30 30 30 29
6 6 6 6 6 5 5 4 3 2 1 1 2 3 3 4 5 6 7 8 9 10 11 12 13 14 14 15 15 16 16 17 17 18 18 19 20 20 21 22 22 23 23 24 24 24 25 25 25 26 26 26 26 26 26 26 26 26 26 27 27 27 27 27 28 28 29 29 30 30 30 30 29 28 28 28 29 29 30 30 30 30 30 30 30
7 7 7 7 7 6 5 5 4 3 2 2 3 3 4 5 6 7 8 9 10 11 12 13 14 15 15 16 16 16 16 17 17 18 18 19 19 20 21 21 22 22 22 23 23 24 24 25 25 26 26 26 26 26 26 26 26 26 26 26 26 26 27 27 27 28 29 29 30 30 31 31 31 30 29 29 29 30 30 30 30 31 31 31 31
9 8 8 8 8 7 6 5 5 4 3 3 3 4 5 5 7 8 9 10 11 12 13 14 14 15 15 16 16 16 16 16 17 17 18 18 19 19 20 21 21 22 22 23 23 23 24 24 25 25 26 26 25 26 26 26 26 26 26 27 27 27 27 27 27 27 28 29 30 31 31 31 31 32 32 33 33 32 32 31 31 31 31 31 30
10 10 9 9 9 8 7 6 5 4 4 4 4 4 5 6 7 8 10 11 12 13 13 14 15 15 15 16 16 16 16 16 17 17 17 18 18 19 20 20 21 22 22 22 23 23 23 24 25 25 26 26 25 26 26 26 26 27 27 27 27 28 28 27 28 28 28 29 30 30 31 31 31 31 32 33 35 35 35 34 32 32 33 33 31
12 11 11 11 10 10 9 7 6 5 5 4 4 5 6 7 8 9 11 12 13 14 14 15 15 15 16 16 16 16 17 17 17 17 17 18 19 19 20 20 21 22 22 23 23 24 24 24 24 25 25 25 25 25 26 26 26 26 26 27 27 27 28 28 28 29 29 29 30 30 30 31 31 31 31 31 33 35 37 36 35 33 33 33 33
13 13 12 12 12 10 10 9 7 6 6 5 5 6 6 7 9 10 12 13 14 15 15 15 16 16 16 17 17 17 18 18 17 17 18 19 19 20 21 21 21 22 22 23 23 24 24 25 25 25 26 26 25 25 26 27 26 26 26 27 27 27 27 28 29 30 30 30 31 30 31 32 32 31 30 31 31 33 36 37 36 35 34 34 34
15 14 14 13 12 11 11 10 9 8 7 6 6 7 7 8 10 11 13 14 15 16 16 16 16 16 17 17 17 18 18 18 18 18 18 19 20 21 22 22 22 23 23 23 23 24 24 25 25 26 26 26 25 25 26 26 26 26 26 26 27 27 27 28 28 29 30 31 31 31 32 33 33 32 31 31 31 32 34 36 37 36 35 34 34
16 15 15 14 13 13 12 11 10 9 9 8 8 8 8 9 10 12 13 14 15 16 17 17 17 17 18 18 18 18 18 18 18 18 19 20 21 22 22 23 23 23 24 24 24 25 25 25 25 26 25 25 25 25 25 25 25 25 25 26 26 27 28 29 29 29 30 30 31 32 32 33 34 33 32 32 32 33 33 35 37 36 35 34 33
17 16 16 15 15 14 14 12 11 11 10 10 9 9 9 10 11 13 14 15 16 17 17 17 17 18 18 18 18 18 18 18 18 18 19 20 21 22 23 23 23 24 24 25 25 25 25 25 26 25 25 25 25 25 25 25 25 25 24 25 25 26 27 28 29 29 30 30 31 32 33 33 34 34 33 32 33 33 33 34 36 36 36 35 33
18 17 17 17 16 15 14 13 13 12 12 11 11 10 10 11 12 14 14 15 17 18 18 18 18 19 19 18 18 18 18 18 18 19 20 21 22 23 23 23 24 24 24 25 25 25 25 25 25 25 25 25 24 24 24 24 24 24 23 24 24 25 26 27 28 29 30 31 32 32 33 33 34 34 34 34 34 33 33 34 36 36 35 36 34
19 18 18 17 17 16 16 15 14 13 13 12 12 11 12 13 13 14 15 16 17 18 19 19 19 19 19 19 19 18 18 18 19 20 21 22 23 23 23 23 24 24 24 25 25 25 25 25 25 25 25 24 24 24 24 23 23 23 23 23 23 24 25 26 27 29 30 31 32 33 33 34 35 35 35 35 35 35 34 34 36 36 35 36 36
20 19 18 18 18 17 17 16 15 14 14 13 12 12 13 14 14 15 16 17 18 19 20 20 20 20 19 19 19 19 18 19 19 20 21 22 23 23 24 24 24 24 24 24 24 25 24 24 24 24 24 24 24 24 23 23 23 23 23 23 24 24 25 26 27 28 30 30 32 33 34 35 36 36 37 37 36 36 36 36 37 37 37 37 37
20 19 19 19 18 18 18 17 16 15 15 14 13 13 14 14 15 15 16 17 18 20 21 21 21 21 20 20 20 19 19 19 20 20 22 22 23 23 24 24 24 24 24 24 24 24 24 24 24 24 24 25 25 24 24 24 24 24 24 24 25 25 26 26 27 29 30 30 31 33 34 35 36 37 37 38 38 38 38 37 37 38 39 39 38
20 20 20 19 19 19 19 18 17 16 16 15 14 14 14 15 16 16 17 18 19 20 21 22 22 22 21 21 21 20 20 20 20 21 22 23 23 24 24 24 24 24 24 24 24 24 24 24 24 24 24 25 25 25 24 24 24 25 25 25 25 26 26 27 28 29 30 31 32 33 34 35 36 36 37 38 39 39 39 38 38 39 40 41 41
20 20 20 20 20 20 20 19 18 17 16 16 15 15 15 16 16 17 18 18 20 21 22 22 22 22 22 22 21 20 20 20 21 22 22 23 23 24 24 24 24 24 24 25 25 25 25 24 24 24 25 25 25 25 25 25 25 25 25 26 26 27 28 28 29 29 31 32 33 34 35 35 36 36 37 38 39 39 40 40 40 40 40 40 41
20 20 20 20 20 21 20 20 19 17 17 17 16 16 16 16 17 18 18 19 20 21 22 23 23 23 23 22 21 21 21 21 21 22 23 23 23 24 24 24 24 25 25 25 25 25 25 25 25 24 25 25 25 25 25 25 25 26 26 27 27 27 28 29 30 30 31 33 34 35 36 36 37 37 37 38 39 39 40 40 40 41 41 40 41
20 20 20 20 20 21 21 20 19 18 18 18 17 16 17 17 18 18 19 20 21 21 22 23 24 23 23 22 22 21 21 21 22 22 23 23 23 24 24 25 25 25 25 26 26 26 25 25 25 25 25 25 26 25 25 25 25 26 27 27 27 27 29 29 30 30 31 32 34 35 36 37 38 38 38 38 39 39 40 40 40 40 41 41 40
20 20 20 20 20 21 21 21 20 19 18 18 17 17 18 18 19 19 20 21 21 22 22 23 24 24 23 23 22 21 21 22 22 23 23 24 24 24 25 25 26 26 26 27 27 26 26 26 26 26 25 25 26 26 25 25 26 26 27 26 27 28 28 29 29 30 31 32 33 34 35 35 36 38 38 38 38 39 40 41 40 40 41 41 39
19 19 20 20 20 21 21 21 20 19 19 18 18 19 19 19 20 20 21 21 22 22 23 24 24 24 23 23 22 22 22 22 22 23 24 24 25 25 26 26 26 27 27 27 27 27 27 26 26 26 26 26 26 26 26 26 26 27 27 27 27 27 28 28 29 30 31 31 32 33 34 35 35 37 37 37 37 38 39 40 41 40 41 40 39
18 18 18 19 20 21 21 21 20 20 20 20 20 20 20 20 21 21 21 22 22 23 24 24 25 24 23 23 22 22 22 23 23 24 24 25 26 26 26 26 27 27 28 28 28 28 27 27 26 26 26 26 26 27 27 27 27 27 27 27 28 28 28 28 29 30 30 31 31 31 32 33 34 35 36 37 37 38 38 40 40 40 41 40 39
17 18 18 18 19 20 21 21 21 21 21 20 21 21 21 21 22 22 22 22 23 23 24 25 25 24 23 23 23 23 23 23 24 24 25 26 26 27 27 27 27 28 29 29 29 28 28 27 27 27 27 27 27 27 27 28 27 27 27 27 28 28 28 28 29 29 30 30 30 30 29 30 32 33 34 36 37 37 38 39 40 40 40 41 40
17 18 18 18 19 21 21 21 21 21 21 21 21 21 21 22 22 22 22 23 23 24 25 25 25 24 24 23 23 23 24 24 24 25 25 26 27 27 27 28 28 29 29 29 29 29 28 28 27 28 28 28 27 27 28 28 27 27 27 27 27 27 27 27 28 29 29 29 29 28 27 27 28 30 31 33 35 36 36 37 38 39 40 41 40
18 19 19 20 21 21 21 22 21 21 21 21 21 21 21 22 22 23 23 23 24 25 25 25 25 24 24 24 24 24 24 25 25 25 26 27 27 28 28 28 29 29 29 29 29 29 28 28 28 28 29 28 28 27 27 27 26 26 26 27 27 26 26 27 28 28 28 29 28 26 24 24 25 26 27 28 31 33 34 36 36 37 39 41 41
20 20 21 21 21 21 21 21 21 21 21 21 21 21 21 22 23 23 23 24 24 25 25 25 25 25 24 24 24 24 25 25 26 26 26 27 28 28 29 29 29 29 29 29 29 29 28 28 28 28 29 28 27 27 26 26 25 25 26 26 26 26 26 26 27 27 28 29 27 23 22 22 22 23 24 25 27 29 32 34 35 35 37 40 40
22 22 22 22 22 22 22 21 21 21 21 21 21 21 21 22 23 23 24 24 25 25 25 25 25 25 25 25 24 24 25 26 26 26 27 27 28 29 29 29 29 29 29 29 29 29 28 28 28 28 28 28 27 26 25 25 25 25 25 25 25 25 25 25 25 27 27 28 26 22 20 20 20 21 21 22 25 27 29 32 34 34 35 38 40
22 22 22 22 23 23 22 21 21 21 21 21 21 21 22 22 23 23 24 24 24 25 26 26 25 25 25 25 25 25 26 26 26 27 27 28 29 29 29 29 29 29 29 29 29 29 28 28 28 28 28 27 26 25 24 24 24 24 24 24 24 24 24 24 24 26 26 27 26 22 20 19 19 20 20 21 23 25 26 29 33 34 35 37 38
22 22 23 23 23 23 22 22 22 21 21 21 21 21 22 22 23 23 24 24 24 25 26 26 25 25 26 26 25 26 26 26 27 28 28 28 29 29 29 29 29 29 29 29 29 29 28 28 28 27 27 26 25 24 23 23 23 23 23 23 23 23 23 23 23 25 25 26 25 22 19 18 19 19 19 20 22 23 25 27 30 33 35 37 39
22 22 23 24 24 23 22 22 22 21 21 21 21 21 22 22 23 23 24 24 24 25 26 26 26 26 26 26 26 26 26 27 28 28 28 29 29 29 29 29 29 29 29 29 29 29 28 28 27 26 25 24 23 22 22 22 22 22 22 22 22 23 22 22 22 23 24 25 25 23 20 18 18 18 19 20 21 23 24 26 28 31 34 36 39
22 22 23 24 23 22 22 22 21 21 20 20 21 21 22 22 23 23 24 25 25 26 26 26 26 26 25 26 26 26 27 27 28 28 29 29 29 29 29 29 29 29 29 29 28 28 28 27 27 25 24 23 22 21 21 21 21 21 21 21 22 22 22 22 22 22 23 25 25 24 22 20 18 18 19 20 21 23 24 25 27 29 32 35 38
21 21 22 22 22 21 21 21 21 20 20 20 21 22 22 23 23 23 24 25 26 26 26 25 25 25 25 26 26 27 27 28 28 28 28 28 28 28 28 28 28 29 29 28 28 28 28 27 26 24 23 22 21 20 20 20 20 21 21 21 22 22 21 21 22 22 23 25 25 24 23 22 20 19 19 20 21 23 25 26 27 28 30 33 36
20 20 21 21 21 21 21 20 20 20 20 20 21 22 23 23 23 24 25 25 26 26 25 25 25 25 26 26 27 27 28 28 28 28 28 28 28 28 29 29 29 29 29 28 28 28 27 26 24 23 22 21 20 20 20 20 20 20 20 21 22 22 21 21 21 22 22 24 25 24 23 23 22 21 21 21 21 22 24 25 27 28 30 32 35
18 19 19 19 20 21 20 19 19 19 20 21 22 23 23 23 24 25 25 25 26 25 25 24 25 25 26 27 27 28 28 28 28 28 28 28 28 29 29 29 29 29 29 28 28 27 26 24 23 22 22 21 21 20 20 19 19 20 20 21 22 22 21 21 22 22 22 23 24 24 24 23 21 21 21 21 22 22 23 24 26 28 29 31 33
17 17 17 18 20 20 19 19 19 19 20 22 23 23 23 23 24 25 25 25 25 25 24 24 25 25 26 27 27 28 28 28 28 28 28 28 28 29 29 29 29 29 28 27 27 27 25 23 22 22 22 22 22 21 19 19 19 19 20 21 22 22 21 21 22 22 22 23 24 24 24 23 21 20 20 20 21 22 23 23 25 26 28 29 31
15 16 16 18 19 19 18 18 19 20 21 22 23 23 23 24 24 24 24 24 25 24 24 24 25 26 27 27 27 28 28 29 29 29 28 28 28 29 30 30 29 29 28 27 27 27 25 24 23 22 22 22 21 20 19 18 19 19 19 20 21 21 21 21 22 22 22 22 23 23 24 23 21 20 20 19 19 21 22 22 23 24 25 26 28
13 14 15 16 17 17 17 18 19 21 22 22 23 24 24 25 24 24 24 25 25 24 24 25 26 26 27 27 27 28 28 29 29 29 28 28 29 30 30 30 29 29 28 28 28 26 25 24 23 22 22 21 20 20 19 19 18 18 18 19 20 21 21 21 21 21 22 22 22 22 23 23 22 20 20 19 19 18 19 20 20 20 22 24 27
13 14 15 16 16 16 17 19 20 22 22 23 24 24 25 25 25 25 25 25 25 25 26 26 26 26 27 28 28 28 28 29 30 30 29 29 30 30 30 30 30 29 28 28 27 25 24 23 22 22 21 20 20 20 19 18 18 18 17 18 19 20 20 20 21 21 21 20 21 21 22 22 22 20 19 19 18 17 17 17 17 18 18 20 24
14 14 14 15 16 17 19 21 22 22 23 23 23 24 25 25 25 26 26 26 26 27 27 27 26 27 28 28 28 29 28 29 30 30 30 30 30 30 31 31 30 29 28 27 26 24 23 22 21 21 20 20 20 20 19 17 17 17 17 17 18 19 19 20 20 20 20 19 20 20 20 21 21 20 19 18 17 16 15 14 15 15 15 15 18
14 15 15 16 17 19 21 22 22 22 23 23 23 24 25 25 26 28 27 27 27 28 28 27 27 27 28 28 29 29 29 29 30 30 30 30 30 30 30 30 30 29 28 26 25 23 22 21 21 20 20 19 19 18 17 17 17 17 17 17 17 18 19 19 19 19 19 19 18 19 19 19 20 19 18 18 17 15 14 14 14 13 12 10 11
16 17 17 18 19 20 21 22 22 22 23 23 24 25 25 26 28 28 28 28 28 27 27 27 28 28 28 29 29 29 29 29 30 30 30 30 30 30 30 29 29 28 27 26 24 22 21 21 20 19 19 19 18 17 17 17 17 17 17 17 17 18 18 18 19 19 18 18 18 18 18 18 18 18 17 17 16 16 14 14 14 11 8 6 5
17 17 18 20 20 21 21 22 23 23 23 24 25 26 27 28 28 28 28 28 27 27 27 28 28 28 28 28 28 28 28 29 29 30 30 30 30 31 30 29 28 27 26 25 23 21 20 20 19 18 18 18 17 17 16 16 16 17 18 17 17 17 17 17 18 18 18 18 17 17 17 17 16 16 16 15 15 15 16 15 13 10 6 3 2
17 18 19 20 21 21 22 23 24 24 25 26 26 27 28 29 29 28 28 27 27 27 27 27 27 27 27 27 28 28 28 29 29 30 30 30 30 30 29 28 27 26 25 23 21 20 19 19 19 18 18 17 17 16 16 16 16 17 17 17 17 17 16 17 17 17 17 17 17 17 16 15 14 15 15 15 14 13 15 16 15 10 6 3 1
18 18 19 20 21 22 23 24 25 25 26 27 28 29 29 29 29 28 27 27 26 26 26 26 26 26 26 27 28 27 28 29 29 29 30 30 30 29 27 27 27 26 24 22 20 19 18 18 18 18 17 17 16 15 16 16 17 17 17 17 16 16 16 16 16 16 16 17 16 15 14 13 13 13 14 14 13 13 13 15 15 13 9 6 4
18 18 19 20 21 22 23 24 25 26 27 27 28 28 28 28 28 27 26 25 25 25 25 25 25 25 26 27 28 28 28 29 29 30 30 30 29 28 27 28 27 25 23 21 19 18 17 17 17 16 16 16 15 15 16 17 18 17 17 16 16 15 15 15 16 16 16 16 16 14 13 13 12 12 13 13 12 12 12 13 14 13 11 8 6
18 19 20 20 21 22 23 24 25 26 27 28 28 28 27 27 26 25 25 24 24 24 24 25 25 25 26 27 27 28 28 29 30 30 30 29 29 28 29 29 27 24 22 20 18 17 17 16 16 15 15 15 15 15 16 17 18 17 17 16 15 15 15 15 15 16 16 15 14 13 13 13 12 12 12 12 11 12 12 12 12 12 11 10 8
19 20 20 21 22 23 24 25 26 27 27 27 27 27 27 26 25 25 25 24 24 24 25 26 26 26 27 27 27 28 28 29 29 29 28 27 27 28 28 27 24 21 19 18 16 16 16 15 14 13 13 14 14 15 17 17 17 16 15 14 15 15 15 15 15 15 14 14 13 13 13 13 12 11 11 11 11 11 11 12 12 11 11 10 8
21 21 22 22 24 25 26 26 26 27 27 27 27 27 27 26 25 25 25 24 24 25 25 26 26 26 26 27 27 28 28 27 27 26 26 26 25 25 25 22 18 16 15 15 14 14 13 13 12 12 12 13 14 15 16 16 15 14 14 13 14 14 14 14 14 13 13 13 13 13 13 13 12 11 11 11 10 10 10 11 11 10 10 9 8
Wind_Direction
149 151 154 158 162 168 170 164 157 158 158 177 233 261 271 271 272 272 278 282 284 289 293 295 297 299 300 300 300 300 298 298 299 299 300 299 299 301 301 301 302 301 300 298 295 294 294 292 291 289 287 285 284 284 285 283 281 278 276 273 270 268 267 267 267 266 262 259 259 258 256 254 252 250 249 249 248 248 247 246 244 244 242 241 240
149 152 155 160 165 169 173 173 167 157 141 117 73 7 329 307 296 292 292 290 292 298 300 301 301 302 302 302 302 303 302 301 301 301 301 301 301 302 302 302 302 302 301 299 298 296 295 294 293 291 289 288 287 286 285 284 281 279 277 275 273 270 269 267 266 264 261 259 259 258 256 254 252 250 249 248 247 247 247 246 245 245 244 242 240
164 168 169 171 175 176 179 182 178 161 137 100 51 21 4 346 330 321 312 306 305 306 305 306 306 306 306 305 304 306 305 303 303 303 304 304 304 304 304 303 303 302 302 301 300 299 297 296 295 294 292 290 289 287 285 283 281 279 276 274 273 272 270 267 264 261 260 260 258 256 255 254 253 251 249 249 247 245 245 245 244 244 244 242 241
188 191 188 183 183 185 188 187 180 169 160 103 13 360 354 348 341 334 327 321 319 315 313 313 312 310 309 309 308 308 308 307 308 308 307 307 307 306 306 305 304 303 303 302 301 300 299 297 296 295 294 292 291 289 286 283 282 280 276 273 272 272 270 267 263 261 261 259 256 255 254 253 253 252 251 248 246 245 245 243 243 243 242 242 242
204 204 198 192 191 193 196 195 190 189 213 282 325 334 336 338 339 335 331 328 326 324 321 319 317 315 314 314 313 312 312 312 311 311 311 310 308 308 308 307 307 306 305 304 302 301 299 298 297 296 295 294 293 291 289 286 284 280 277 275 273 271 270 267 263 262 261 257 254 254 254 252 252 253 251 248 245 245 244 243 242 242 242 242 243
212 212 206 200 199 200 204 208 209 217 251 293 306 315 321 327 331 331 330 328 327 326 324 322 321 319 318 317 317 316 315 315 314 314 314 313 311 310 310 310 309 308 307 306 305 303 301 299 298 297 296 294 294 293 290 288 285 282 280 278 275 273 271 268 264 261 261 258 255 254 254 252 251 251 250 249 246 245 244 243 242 242 242 242 243
216 217 212 207 206 208 213 217 224 237 259 290 304 312 318 323 327 328 328 327 326 325 325 324 322 320 319 319 318 317 316 316 316 316 315 315 314 313 312 312 312 311 309 308 307 306 304 302 300 299 297 296 295 294 292 290 287 284 282 280 277 275 272 269 266 262 260 259 256 255 254 252 251 251 250 250 249 247 245 244 244 243 243 243 243
218 220 219 214 214 217 222 224 231 243 256 277 296 310 318 323 326 327 327 326 325 325 325 324 322 321 320 319 318 318 317 317 317 316 316 316 315 315 314 314 314 314 313 312 311 309 307 305 303 301 299 298 296 294 293 291 289 286 283 280 278 275 272 269 267 264 261 259 257 255 254 252 251 252 251 251 251 249 247 246 245 243 243 243 243
221 222 224 222 222 226 230 230 233 243 256 270 286 303 314 320 324 325 326 326 325 325 324 324 323 322 321 320 319 318 318 318 317 316 317 317 317 317 317 316 316 316 316 315 315 314 312 309 306 304 302 300 297 295 293 291 289 288 285 282 279 275 272 270 267 265 262 260 257 256 254 252 252 252 252 251 250 248 246 246 246 245 244 243 242
226 225 226 226 227 232 233 232 235 244 255 266 281 298 310 316 319 322 324 326 325 325 324 323 323 322 322 321 321 320 319 318 318 317 318 318 318 318 318 317 317 317 317 317 317 316 315 313 310 308 305 303 300 297 295 293 291 289 286 284 280 275 272 270 267 265 263 261 258 256 254 251 252 253 252 251 250 247 245 245 246 246 245 243 242
229 228 229 229 230 232 234 232 237 245 252 264 280 295 305 312 316 320 323 325 326 325 323 323 323 323 323 322 321 320 319 318 318 318 319 319 318 318 318 317 317 316 316 316 317 317 316 315 313 311 308 305 302 299 296 294 293 289 287 285 281 277 274 271 269 266 263 260 258 256 254 251 250 252 252 252 250 248 245 244 245 246 245 244 242
230 231 232 232 232 232 233 234 237 244 249 260 277 290 301 309 314 318 322 324 325 325 324 322 323 323 323 322 321 319 318 318 318 318 319 319 319 319 319 318 317 317 317 317 317 318 317 316 315 313 311 308 304 301 298 296 293 290 287 285 282 278 275 273 271 267 263 261 258 256 254 251 250 252 253 252 250 249 247 244 244 245 245 243 242
230 231 233 235 236 234 233 234 237 243 247 257 272 285 297 306 311 316 320 323 325 325 324 323 323 323 323 322 320 318 318 317 317 318 319 319 319 320 320 319 318 317 317 317 318 319 319 318 317 315 313 311 308 305 301 298 296 293 289 286 283 280 277 274 271 268 265 262 259 256 254 252 251 252 253 251 250 249 248 244 242 243 244 243 242
231 232 232 235 238 236 234 235 239 243 247 255 269 282 294 302 307 314 319 322 325 326 324 323 322 322 322 321 319 317 317 317 317 318 319 320 320 320 320 319 318 318 317 317 318 318 319 319 319 317 315 313 311 307 305 301 298 296 293 289 285 281 279 276 273 269 267 265 262 258 255 253 251 251 251 250 250 249 248 245 241 242 244 242 241
232 232 233 234 237 237 236 237 240 244 248 256 268 279 290 299 304 311 317 321 325 326 325 323 321 321 321 320 318 317 317 317 317 318 319 320 320 320 319 319 318 318 317 317 317 318 319 319 319 318 316 315 313 310 307 304 301 299 297 293 290 286 282 279 275 271 268 267 264 261 257 254 251 251 250 250 250 249 249 245 240 241 243 241 240
232 233 233 233 235 238 238 238 241 246 250 257 267 277 287 295 301 307 314 320 324 326 326 324 322 321 320 319 318 316 316 316 316 318 319 320 320 319 318 318 317 317 317 317 317 317 318 318 318 317 316 315 314 312 309 306 304 302 300 297 295 291 286 282 278 274 271 269 266 262 259 256 253 251 250 250 250 248 248 246 240 240 242 241 240
233 234 233 233 235 238 239 240 243 247 252 257 266 276 284 292 298 304 311 318 323 325 326 325 323 321 320 318 317 316 315 315 315 317 319 320 320 319 318 317 317 317 317 317 316 316 317 317 317 316 315 314 314 312 310 307 305 303 302 301 298 295 290 286 282 278 274 271 268 265 262 259 256 253 252 250 249 249 248 246 242 240 241 241 241
232 234 234 234 236 238 240 241 244 247 252 257 265 274 282 289 296 302 308 315 320 323 325 325 323 321 319 317 316 315 313 313 314 316 318 320 320 319 318 316 316 316 316 316 316 316 316 316 315 314 314 313 313 311 309 306 305 304 303 302 300 298 293 290 286 281 277 273 270 267 264 261 258 256 253 250 249 248 247 246 244 242 241 241 242
232 234 235 236 236 237 240 242 244 247 252 258 264 272 280 287 294 300 306 313 317 321 323 323 322 320 318 317 315 314 313 312 313 315 317 319 319 319 318 317 316 315 316 316 316 316 316 315 314 313 313 313 312 311 308 306 305 304 303 302 301 299 296 293 290 286 280 275 271 269 266 262 259 257 254 251 249 247 246 245 244 243 242 242 242
232 234 235 236 235 237 240 242 243 247 252 258 264 270 278 285 292 298 304 310 315 318 321 321 320 319 317 316 314 313 312 311 312 314 316 317 318 318 318 317 316 315 315 315 315 316 315 314 312 311 311 312 312 311 308 306 304 304 304 303 302 300 298 296 294 290 285 279 274 270 267 263 261 258 255 252 250 247 245 244 244 243 242 242 241
233 234 235 235 235 237 239 242 244 247 251 257 263 270 277 284 290 296 301 307 312 315 318 319 319 317 316 315 313 312 311 311 312 313 314 315 316 317 317 316 316 315 315 315 315 315 315 313 311 310 309 310 311 311 309 307 305 305 305 304 303 301 300 298 297 294 289 283 277 272 268 264 261 259 256 254 251 248 245 244 242 242 242 242 241
235 236 236 235 235 237 239 242 244 247 250 256 263 270 276 281 288 294 300 305 309 312 316 317 317 316 315 314 312 311 310 310 311 312 313 314 315 315 315 315 315 315 315 315 315 315 315 313 311 309 308 309 309 310 309 308 306 306 306 305 303 302 302 300 299 297 294 289 282 275 270 266 262 258 256 255 252 248 245 243 242 241 241 241 241
236 238 238 237 236 237 240 242 243 247 250 256 263 269 274 279 286 293 298 303 308 310 312 315 315 315 313 312 312 311 310 309 310 311 313 314 314 314 314 313 313 314 314 314 313 314 314 313 311 309 308 308 308 308 309 308 308 308 307 306 305 304 303 303 301 300 299 295 288 279 273 268 264 259 256 254 251 248 245 243 242 240 239 239 240
237 239 240 239 237 237 239 241 243 247 250 255 262 268 273 279 285 291 296 301 305 307 310 312 313 313 312 311 310 310 310 309 309 311 311 313 314 314 314 313 313 313 313 313 312 312 312 311 311 309 308 307 307 307 308 308 308 309 309 307 305 304 304 305 305 305 303 300 294 285 276 270 266 261 256 253 250 248 246 243 242 241 238 238 239
239 239 239 238 238 238 239 241 244 247 250 255 262 267 272 277 283 290 296 300 303 305 308 310 311 311 310 309 309 309 309 308 309 309 310 312 313 314 314 313 313 314 313 312 311 311 310 310 309 308 307 307 306 306 306 307 308 309 309 308 307 305 306 307 307 308 307 304 299 291 280 272 266 262 257 253 249 247 246 243 242 241 238 237 239
242 240 240 240 240 241 240 242 245 247 250 255 261 266 271 277 282 288 294 298 301 303 306 309 310 309 308 308 308 309 308 308 308 309 310 311 312 312 312 313 314 314 313 312 311 311 309 308 307 307 306 305 305 305 305 306 307 308 309 309 308 307 307 308 309 309 308 306 303 296 285 275 268 263 259 254 249 247 245 243 242 241 238 237 238
246 245 244 243 243 243 241 242 244 247 250 256 262 266 271 276 281 286 292 296 299 302 305 307 308 308 308 308 308 308 308 309 309 309 309 310 310 311 312 312 313 313 313 312 311 310 309 307 306 305 304 304 303 304 305 305 306 307 308 310 310 309 310 310 311 312 311 310 307 301 290 279 270 265 262 256 250 246 244 243 242 241 238 237 237
248 246 245 244 244 243 242 242 245 248 251 257 263 267 271 276 280 285 290 294 298 301 303 305 306 307 307 308 308 308 308 309 309 309 309 310 309 310 311 311 312 312 313 312 311 310 308 306 305 304 303 303 302 302 304 305 305 305 307 309 311 311 311 313 314 314 314 314 312 305 297 285 274 268 264 257 250 247 244 242 242 241 239 237 236
249 247 246 245 245 244 243 243 245 248 252 258 264 268 272 276 280 285 289 293 297 299 301 303 305 306 307 307 307 308 308 309 308 309 309 309 309 309 310 311 312 312 312 311 310 310 308 305 305 304 303 302 301 301 302 304 304 304 306 309 311 311 312 314 315 316 318 319 315 307 301 293 280 272 265 257 251 248 245 243 243 242 240 236 235
250 248 247 247 246 244 243 244 246 249 253 258 263 268 272 275 280 284 288 293 296 298 300 302 303 304 306 306 306 307 308 308 308 308 309 309 310 310 310 311 312 312 312 311 311 310 308 306 305 305 303 302 301 300 301 302 302 302 306 309 310 311 312 314 316 318 320 322 319 309 302 298 286 276 268 259 253 251 249 246 244 243 241 237 236
250 248 247 247 246 245 244 245 247 250 254 258 264 268 271 275 280 284 289 293 295 296 299 301 302 303 305 305 305 306 307 307 307 308 308 309 310 310 310 311 312 312 311 311 311 310 308 307 306 305 304 302 301 300 300 301 300 302 306 309 310 311 312 313 318 321 322 325 324 314 303 299 291 281 272 264 258 256 254 250 246 244 242 238 235
250 248 247 246 245 245 245 245 247 250 254 259 264 268 271 275 280 286 290 293 294 295 298 300 301 302 304 304 305 305 306 306 307 307 308 309 310 310 310 311 312 312 311 311 311 310 309 308 307 306 304 303 301 300 299 300 301 302 306 309 310 310 311 312 317 322 324 327 327 321 309 300 294 285 275 268 265 260 257 254 250 247 244 239 236
251 247 244 244 245 244 243 244 247 250 254 259 263 267 271 276 281 287 291 292 293 295 298 299 300 301 303 304 304 305 305 305 306 307 308 309 310 310 311 312 312 312 311 311 311 310 309 308 306 305 304 303 302 300 300 301 301 303 306 309 310 309 310 312 316 321 325 328 329 327 319 306 297 290 281 274 271 266 261 258 255 251 246 241 237
252 247 243 243 244 243 242 244 247 250 255 259 264 268 272 277 283 288 290 291 293 295 297 297 299 300 302 303 304 305 305 306 306 307 308 309 310 310 312 312 312 312 311 311 310 310 309 308 306 305 304 303 302 301 301 302 302 304 306 309 310 309 309 312 315 318 323 327 328 328 324 313 301 292 286 281 276 271 267 263 260 255 250 244 240
254 250 245 243 242 241 242 243 246 250 255 261 266 270 274 279 283 287 289 290 293 294 295 296 298 299 301 303 304 305 306 306 307 307 307 308 310 310 311 312 312 312 311 311 310 310 309 307 306 304 303 303 302 301 302 303 302 303 305 308 310 310 309 311 313 316 322 326 328 327 324 318 307 293 286 285 281 276 272 268 264 260 253 247 242
256 252 247 242 239 239 240 243 247 252 256 262 267 271 275 279 284 286 288 290 292 293 294 296 297 299 301 303 304 306 307 307 307 307 307 308 309 310 310 310 311 311 311 311 310 310 310 308 306 305 303 302 302 301 301 302 301 301 304 307 310 310 310 311 312 314 320 325 328 328 324 321 313 299 289 286 285 281 276 272 270 266 259 249 243
257 252 246 240 237 238 240 243 248 253 258 264 269 272 275 280 284 286 288 289 291 292 294 295 297 299 301 303 304 306 307 307 307 307 307 308 308 309 309 310 311 311 311 311 311 311 311 309 306 304 303 303 303 302 301 301 301 301 303 306 309 310 310 311 311 313 318 322 326 328 327 324 318 307 296 289 286 284 281 277 275 272 264 253 245
256 249 244 240 238 238 240 243 248 255 262 268 271 272 276 281 284 286 287 288 290 292 294 296 297 299 301 302 304 305 306 307 307 307 307 308 308 308 309 310 311 311 310 311 311 311 310 308 306 303 301 301 302 302 301 301 301 302 304 306 309 310 310 311 312 313 316 319 323 327 328 327 322 316 307 297 290 286 284 282 279 275 268 257 246
256 250 244 241 240 240 242 246 252 260 266 270 272 273 277 281 283 285 287 288 289 291 294 296 297 299 301 302 303 304 305 306 306 306 307 307 307 308 309 309 309 309 309 309 309 308 307 306 305 304 302 301 301 300 300 301 302 303 305 307 309 311 311 311 313 313 314 317 320 324 327 327 325 320 317 310 301 291 287 286 284 276 268 260 248
256 252 248 246 245 245 247 252 259 264 268 272 274 275 278 281 283 285 287 288 289 291 294 295 296 299 300 301 302 303 304 305 306 307 307 307 307 307 307 307 306 306 305 305 305 305 303 302 303 303 303 301 300 300 301 301 302 303 306 308 310 311 311 311 313 314 314 316 318 321 325 328 328 324 321 318 312 300 292 290 288 281 272 262 250
256 254 252 251 250 251 254 260 265 268 271 274 276 276 278 281 283 284 286 287 289 291 293 294 296 298 299 300 301 302 302 304 305 306 306 306 307 307 307 306 305 304 303 303 303 302 300 299 300 302 302 301 300 300 300 300 301 304 307 309 310 312 313 313 313 314 315 317 318 320 323 328 332 331 327 324 319 310 301 298 295 289 281 268 249
259 258 257 255 255 257 261 265 268 270 273 277 278 278 279 282 283 283 284 287 289 290 292 294 295 296 298 299 301 302 302 303 304 305 305 305 306 307 307 306 305 304 302 301 301 299 297 297 299 300 301 301 300 298 297 298 301 304 306 308 310 313 315 315 315 315 317 318 319 321 323 327 333 336 336 335 332 322 311 309 306 298 291 279 252
261 259 258 258 261 264 266 268 270 273 276 278 280 282 282 283 284 284 284 287 289 290 291 293 295 296 297 298 301 302 302 302 304 304 305 305 305 306 306 305 304 303 302 300 299 297 294 295 297 299 300 301 301 300 299 301 303 305 306 307 308 312 316 317 316 316 318 320 321 323 324 327 333 339 341 342 345 342 329 323 321 310 298 288 261
264 263 261 262 266 269 270 272 275 278 278 279 283 285 285 284 285 285 285 287 289 289 291 293 294 294 295 297 300 301 301 302 303 303 304 304 304 304 304 304 304 303 302 300 297 293 291 292 295 298 299 300 301 302 303 304 304 306 307 307 308 311 315 317 318 318 319 321 322 324 326 329 332 338 341 342 349 356 352 341 336 328 311 292 267
267 267 266 266 270 273 275 276 279 281 281 282 284 286 286 285 286 285 285 286 288 289 290 291 292 293 295 297 299 300 301 301 302 303 304 304 304 303 302 302 302 302 301 299 295 290 288 289 293 296 298 299 300 302 305 305 305 307 308 307 307 310 314 317 319 320 321 323 324 325 327 329 331 336 342 344 349 359 3 359 353 349 343 322 265
268 270 271 272 274 276 278 279 281 282 283 284 285 287 287 287 286 285 285 286 287 288 289 289 291 293 295 296 298 299 300 302 303 304 304 304 303 302 300 299 299 300 299 296 291 287 285 287 291 294 296 297 299 301 305 307 309 310 310 309 308 310 313 317 319 320 322 324 325 327 329 332 334 337 342 347 351 357 4 8 9 11 16 29 59
270 272 274 276 277 279 280 282 283 284 285 286 287 288 289 289 287 286 286 286 287 288 288 288 290 292 294 295 296 298 300 302 303 304 305 304 302 301 300 297 296 296 295 292 287 284 284 286 289 291 293 295 298 300 303 307 310 311 311 311 311 311 313 317 321 322 323 326 328 329 331 333 336 338 341 345 351 357 2 8 15 22 31 43 63
273 275 276 278 279 281 283 286 287 288 288 288 289 290 291 290 289 287 287 287 287 287 288 290 291 292 293 295 296 297 299 301 302 303 304 303 302 300 299 297 295 293 291 287 284 282 283 285 287 289 292 295 298 300 304 307 308 309 310 310 311 311 312 316 320 322 323 326 329 331 333 334 337 340 343 345 350 357 1 4 10 20 33 45 54
275 276 278 280 282 284 287 288 289 289 290 290 290 291 292 291 289 288 287 287 287 288 290 291 291 291 292 293 295 296 298 300 302 303 303 303 302 301 299 296 292 288 285 283 280 280 282 284 286 288 292 296 298 301 304 306 306 307 307 308 309 310 311 313 318 321 322 324 328 332 335 337 338 341 344 347 349 354 357 359 4 14 28 41 49
275 278 281 283 285 287 288 288 289 290 290 290 290 291 291 290 289 287 287 287 288 290 291 291 289 289 290 291 294 297 298 300 302 303 303 303 305 305 303 297 289 283 280 279 277 277 280 282 284 287 293 297 300 302 304 306 308 309 309 310 310 309 309 310 314 317 319 321 326 331 334 336 337 339 344 347 348 351 354 357 1 8 17 29 42
275 279 282 284 285 287 288 289 289 289 289 289 289 289 289 289 288 287 287 287 289 290 290 289 288 289 290 291 294 297 298 300 302 303 303 304 306 308 307 300 288 279 277 276 275 275 278 282 284 287 292 297 302 305 306 307 310 311 312 314 315 314 312 312 314 317 319 321 324 329 332 334 335 338 343 347 348 350 353 356 360 4 8 16 29